Regional Weather Roundup
Issued by NWS Charleston, WV

Home | Current Version | Previous Version | Text Only | Print | Product List | Glossary Off
Versions: 1 2 3 4 5 6 7 8 9 10 11 12 13 14 15 16 17 18 19 20 21 22 23 24 25 26 27 28 29 30 31 32 33 34 35 36 37 38 39 40 41 42 43 44 45 46 47 48 49 50

000
ASUS41 KRLX 311610
RWRRLX
West Virginia Regional Weather Roundup
National Weather Service Charleston WV
1200 PM EDT THU JUL 31 2014

Note: "fair" indicates few or no clouds below 12,000 feet with no
significant weather and/or obstructions to visibility.

WVZ003-311700-
Northern Panhandle of West Virginia

CITY           SKY/WX    TMP DP  RH WIND       PRES   REMARKS
WHEELING       PTSUNNY   69  61  75 SW3       30.11S
$$

WVZ009-311700-
Northwest West Virginia

CITY           SKY/WX    TMP DP  RH WIND       PRES   REMARKS
PARKERSBURG    MOSUNNY   74  61  63 W8        30.14S
$$

WVZ006-311700-
Western West Virginia

CITY           SKY/WX    TMP DP  RH WIND       PRES   REMARKS
HUNTINGTON     SUNNY     75  63  66 S5        30.12S
$$

WVZ015-311700-
West Central West Virginia

CITY           SKY/WX    TMP DP  RH WIND       PRES   REMARKS
CHARLESTON     MOSUNNY   77  62  59 SW6       30.13S
$$

WVZ031-311700-
North Central West Virginia

CITY           SKY/WX    TMP DP  RH WIND       PRES   REMARKS
CLARKSBURG     MOSUNNY   74  60  61 SW9       30.13S
MORGANTOWN     MOSUNNY   73  59  61 S7        30.14F
$$

WVZ035-042-045-311700-
South Central West Virginia

CITY           SKY/WX    TMP DP  RH WIND       PRES   REMARKS
BECKLEY        MOSUNNY   73  51  46 W6        30.20S
BLUEFIELD      MOSUNNY   74  54  49 S5        30.22R
LEWISBURG      SUNNY     73  55  53 CALM      30.20S
$$

WVZ047-311700-
Northern Mountains of West Virginia

CITY           SKY/WX    TMP DP  RH WIND       PRES   REMARKS
ELKINS         PTSUNNY   75  56  51 W7        30.17S HAZE
$$

WVZ052-311700-
Eastern Panhandle of West Virginia

CITY           SKY/WX    TMP DP  RH WIND       PRES   REMARKS
MARTINSBURG    SUNNY     78  57  48 VRB3      30.12S
PETERSBURG     SUNNY     79  53  40 W7        30.13S
$$



USA.gov is the U.S. government's official web portal to all federal, state and local government web resources and services.